RH
92 79 58 42 38 42 56 63 64 73 80 84 86 85 87 90 90 89 89 92 93 90 89 90 89 90 89 86 85 82 82 81 70 62 63 62 61 54 33 24 37 51 55 58 60 62 63 69 74 76 77 74 70 70 71 70 68 64 62 65 67 71
84 67 50 46 51 58 71 75 72 79 85 85 85 86 87 87 90 88 88 92 91 88 86 87 87 83 82 82 82 79 77 80 75 64 62 62 61 60 49 31 29 43 53 56 59 61 63 69 73 74 77 76 73 71 70 69 68 65 66 69 71 72
69 58 52 55 64 74 82 84 82 82 85 86 88 89 88 87 88 86 87 91 92 91 88 85 82 77 77 78 77 75 73 75 78 71 63 61 61 60 58 46 31 32 45 55 59 60 63 70 72 72 75 76 75 73 70 70 69 67 69 71 72 73
57 52 56 61 71 83 86 86 86 83 84 86 89 90 86 86 85 83 84 88 90 88 83 78 76 79 81 77 76 80 77 73 75 76 69 61 60 61 61 58 45 31 33 46 55 59 63 68 70 71 73 74 76 75 72 71 70 69 70 70 71 73
55 53 59 65 71 85 88 84 84 83 83 83 84 85 83 82 81 80 78 79 81 81 80 80 81 86 87 80 81 88 87 81 74 72 72 65 59 60 62 62 58 43 33 38 49 58 64 66 68 69 69 71 74 76 74 71 71 71 70 69 70 73
56 58 65 66 67 84 91 80 76 79 78 80 84 83 81 80 84 83 73 72 79 83 84 86 88 88 88 86 86 89 90 89 83 76 71 66 61 58 60 62 61 53 43 44 53 61 62 62 64 66 65 70 75 76 75 74 73 73 70 67 69 74
62 67 73 69 67 82 89 75 72 76 73 77 84 83 80 79 87 85 74 73 80 86 89 91 94 93 91 91 90 90 90 90 88 85 76 67 63 59 58 59 61 59 50 49 58 63 63 60 59 62 65 72 78 80 79 77 76 74 71 67 68 73
72 77 81 76 74 77 77 72 76 80 74 73 78 80 78 78 82 82 81 82 81 82 87 90 93 94 94 95 95 94 93 90 87 87 84 72 63 60 58 57 58 60 56 51 55 59 61 61 59 62 68 74 77 79 81 80 78 76 71 68 67 70
78 82 84 81 78 73 69 74 81 81 75 70 69 73 76 79 81 83 88 90 87 85 85 86 87 89 92 94 96 98 97 95 91 87 87 79 66 60 58 58 56 57 58 55 53 52 55 59 60 64 70 72 70 73 79 81 79 77 73 68 66 67
81 83 86 84 75 67 69 77 81 75 70 66 62 68 76 81 84 86 88 90 92 93 92 91 90 89 90 91 93 96 97 96 96 92 89 84 76 68 62 59 58 57 58 57 56 53 54 57 58 62 66 65 66 70 75 77 79 77 73 68 67 66
83 84 86 85 72 66 71 74 75 71 70 69 66 71 77 81 85 87 89 90 92 92 93 93 91 91 89 90 90 92 93 94 95 94 93 91 87 83 75 68 63 60 59 58 58 57 58 61 61 63 64 65 69 72 70 72 76 76 72 69 68 66
82 85 86 84 72 68 74 76 73 72 74 76 77 79 81 84 86 88 90 90 91 90 91 91 91 91 90 90 90 90 91 91 91 91 94 95 94 92 89 83 76 71 68 64 60 59 63 68 67 67 69 72 76 73 67 69 74 75 72 70 69 67
82 87 86 83 76 71 74 77 77 78 79 81 83 84 84 87 89 92 93 91 91 91 92 92 90 90 90 90 90 91 92 91 90 90 91 92 92 92 93 92 86 79 77 74 69 65 69 72 70 71 75 78 78 71 65 68 73 74 72 71 70 67
86 88 85 84 82 78 75 76 80 83 84 85 86 86 86 87 89 92 93 92 91 91 92 92 90 90 91 90 90 92 92 90 90 92 93 93 92 91 93 94 91 85 81 82 79 74 73 74 75 79 83 81 77 72 70 72 73 73 73 71 70 68
88 86 83 83 84 84 82 79 83 87 88 89 89 89 89 88 90 92 94 94 93 92 92 91 91 92 92 91 91 91 90 88 89 93 95 96 97 96 95 96 95 91 86 84 82 78 75 74 78 83 85 83 77 75 76 78 77 75 73 71 70 70
87 85 83 84 85 87 88 86 87 91 92 93 93 93 95 94 94 94 93 92 90 89 88 88 88 90 91 91 91 90 88 88 90 94 94 93 96 98 99 99 96 92 89 87 84 81 77 77 82 84 87 87 82 78 77 78 80 79 76 73 71 72
87 85 85 86 88 91 92 92 94 97 97 97 98 99 98 97 94 92 89 87 87 86 84 85 87 88 91 91 92 91 89 89 91 95 96 94 95 97 100 100 97 94 93 92 90 85 82 83 85 87 91 91 87 84 81 79 79 79 79 77 73 74
89 88 87 88 92 95 96 98 99 99 100 99 99 98 95 93 90 88 87 86 87 86 86 87 89 91 91 90 91 91 88 87 88 92 95 97 98 98 100 100 99 98 97 95 92 90 89 86 81 82 89 90 88 87 86 83 82 81 79 78 76 76
92 90 91 93 95 98 99 100 100 100 100 99 97 95 92 90 87 86 85 86 86 87 88 89 91 93 94 93 91 90 90 90 90 90 92 96 99 100 100 100 99 99 99 97 92 93 95 91 85 84 87 89 90 90 88 86 84 82 79 80 80 79
94 92 95 98 99 99 99 100 99 98 96 95 94 92 90 88 85 85 85 86 88 88 88 89 91 92 93 93 92 93 95 97 98 96 94 95 97 97 99 100 99 98 97 98 96 95 96 96 95 94 92 91 89 89 88 85 82 79 79 83 84 83
95 96 99 99 99 99 98 97 95 93 92 92 91 89 88 87 85 86 87 88 89 89 89 89 91 91 90 90 90 92 94 96 99 100 99 98 97 97 99 100 100 99 98 100 99 98 98 98 100 100 98 96 92 92 91 89 88 88 86 86 86 86
94 96 96 95 95 94 92 91 91 92 90 89 88 85 83 82 83 84 85 85 86 87 88 88 89 88 87 86 87 90 91 93 95 98 100 100 99 99 100 100 100 100 100 100 100 100 100 99 100 99 98 97 97 98 97 94 94 93 90 88 85 85
90 89 89 90 90 89 90 91 91 89 84 81 81 81 80 80 83 84 84 83 83 84 84 85 85 84 83 83 85 87 90 91 91 93 97 99 100 100 100 100 100 100 100 100 100 100 100 100 99 98 97 97 97 97 98 98 97 92 87 86 86 87
87 86 86 86 86 88 88 87 86 81 77 76 79 81 82 83 86 85 83 81 80 81 80 79 78 80 83 83 84 84 85 87 88 90 94 98 100 100 100 100 100 100 100 100 100 100 100 100 99 97 96 97 96 96 97 97 97 94 89 90 91 90
83 82 83 82 83 84 82 79 77 76 75 76 77 80 81 81 82 80 78 77 76 76 76 77 78 80 82 82 80 80 80 82 84 86 91 96 99 100 100 100 100 100 100 100 100 100 100 100 100 97 95 95 95 97 97 94 94 96 96 98 97 94
80 78 79 80 81 80 77 76 76 76 79 80 80 81 80 79 77 77 77 77 75 74 76 80 80 79 79 77 76 76 80 83 85 86 88 93 98 100 100 100 100 100 100 100 100 100 100 100 100 99 96 93 91 90 90 92 95 97 98 100 100 99
81 80 80 80 81 82 81 82 81 82 85 86 85 84 81 79 79 79 79 79 78 76 78 79 77 76 76 76 78 80 85 89 91 91 91 93 96 98 99 100 100 100 100 100 100 100 100 100 100 100 98 96 94 89 83 86 93 96 99 100 100 100
86 85 85 84 86 87 85 85 86 86 86 86 86 87 85 83 81 80 79 80 81 80 79 76 75 76 76 77 80 84 90 95 97 97 97 98 97 98 99 100 100 100 100 100 100 100 100 100 100 100 99 99 99 97 89 84 85 88 94 99 100 100
87 88 88 86 85 85 83 85 87 85 85 85 85 87 86 83 81 79 78 79 81 80 77 76 76 78 77 77 79 83 87 91 94 97 99 100 99 99 100 100 100 100 100 100 100 100 100 100 100 100 100 100 99 100 98 93 89 90 92 95 98 100
85 86 85 84 83 83 84 85 85 83 84 84 84 83 82 81 81 80 81 81 80 77 76 78 79 78 76 77 80 83 84 85 87 92 97 100 100 100 100 100 100 100 100 100 99 100 100 100 100 100 100 100 100 100 100 98 98 98 94 93 96 97
82 82 82 83 82 83 83 82 83 83 83 83 84 84 82 83 83 82 85 84 81 78 78 79 79 77 76 77 79 80 83 85 87 91 96 100 100 100 100 100 99 100 100 100 100 100 100 100 100 100 100 100 100 100 99 97 96 99 97 95 96 97
81 80 80 81 80 81 81 81 82 83 83 85 86 86 85 87 89 90 92 90 86 83 80 79 79 77 76 78 81 82 83 88 93 96 99 100 100 100 100 100 99 100 100 100 100 100 100 100 99 99 100 100 100 100 99 95 92 94 96 93 94 96
78 78 78 78 79 79 79 80 81 83 84 86 86 87 89 92 94 96 98 96 94 91 89 88 86 83 81 84 89 90 91 94 98 100 100 100 100 100 100 100 100 100 100 100 100 100 100 100 100 100 100 99 100 100 98 96 93 93 93 91 93 96
76 77 76 76 76 77 79 81 83 85 86 86 88 91 94 95 97 99 100 99 98 97 98 98 96 93 93 95 95 95 97 99 100 100 100 100 100 100 100 100 99 98 99 99 100 100 100 100 100 100 100 100 100 100 99 98 97 95 94 93 93 95
78 79 77 76 77 78 80 82 83 86 88 90 93 95 98 99 99 100 99 98 98 98 100 100 99 99 99 99 98 97 99 100 100 100 100 100 100 100 99 100 99 97 97 99 100 100 100 100 100 100 100 100 100 100 100 100 100 99 97 92 90 90
79 81 80 79 79 80 81 83 87 91 93 96 99 98 99 100 100 100 98 96 97 99 100 100 100 100 100 100 100 99 100 100 100 99 100 100 100 100 100 100 100 99 99 100 100 100 100 100 100 100 100 100 100 100 100 100 100 100 99 94 90 88
80 81 80 79 80 82 86 91 96 98 99 100 100 99 100 100 100 99 97 97 99 100 100 100 100 100 100 100 100 100 100 100 100 100 100 100 100 99 100 100 100 100 100 100 100 100 100 100 100 100 100 100 100 100 100 100 100 100 99 97 95 94
Wind_Speed
15 14 14 13 13 13 13 14 15 13 12 12 13 13 13 12 11 10 9 8 8 7 7 5 3 2 2 2 3 2 3 3 3 3 2 1 1 3 5 10 14 15 15 13 11 9 7 5 4 5 3 4 8 9 7 5 3 3 4 5 6 6
15 14 14 14 13 13 13 13 12 12 13 12 13 12 11 10 10 10 8 8 8 7 5 4 3 3 3 4 4 4 4 4 4 4 4 2 1 1 3 6 10 14 15 14 12 10 8 6 4 4 2 2 6 8 7 5 4 3 4 4 5 4
15 14 15 14 14 14 13 12 11 11 12 12 13 12 11 10 9 9 7 6 7 7 5 4 3 3 3 3 3 3 3 4 5 6 6 5 3 3 2 3 7 11 14 15 14 11 9 7 4 3 2 1 5 8 8 6 5 4 4 4 4 4
15 15 15 15 14 14 13 12 11 11 11 12 12 11 10 9 8 7 6 6 6 7 6 5 4 3 3 3 2 2 3 4 5 7 8 7 6 5 4 4 5 8 12 15 15 13 11 8 5 3 2 1 3 8 9 8 6 5 4 4 4 4
16 15 15 15 15 15 13 13 12 11 11 11 10 10 8 7 7 5 5 6 6 7 7 6 4 3 4 4 3 2 3 4 4 7 9 9 8 7 6 5 5 6 9 13 15 14 12 9 6 4 1 1 1 6 10 9 8 7 6 5 5 4
16 15 15 15 16 14 13 13 12 12 12 11 10 9 8 7 6 5 5 6 8 8 8 7 5 4 4 5 5 4 4 5 5 5 8 11 11 10 8 7 7 7 7 11 14 14 13 11 8 5 5 4 3 5 10 11 11 10 8 7 6 6
16 15 14 15 15 14 12 12 11 11 11 11 9 9 8 8 7 6 6 7 8 8 8 7 6 6 6 6 7 7 6 7 7 6 7 10 12 12 11 10 9 8 8 10 14 14 13 12 9 7 8 9 8 7 10 13 14 12 10 8 8 8
15 14 13 14 14 13 12 11 10 10 10 10 10 9 9 9 8 7 7 7 8 8 8 8 8 8 9 9 8 9 8 9 9 9 8 9 12 14 14 12 11 10 10 11 14 15 14 13 10 9 10 12 13 12 11 14 16 15 13 11 10 10
14 13 12 12 13 13 12 11 11 11 10 10 10 10 9 9 9 8 7 7 8 8 9 9 9 10 11 12 11 10 11 11 11 10 10 9 10 12 15 15 14 13 12 12 15 16 16 16 13 12 13 15 17 17 15 15 18 18 15 13 11 11
13 12 12 11 12 12 12 12 11 10 10 10 10 10 10 9 9 8 8 8 9 10 11 11 12 12 13 14 14 14 14 14 14 13 12 11 10 10 13 15 17 16 15 15 16 17 17 18 17 16 16 17 19 18 17 16 18 20 18 15 13 11
14 12 11 11 11 12 12 11 10 10 10 9 9 10 10 10 9 9 9 10 11 12 13 14 15 16 16 16 16 16 17 17 17 17 16 15 13 12 12 14 16 17 18 18 18 18 18 19 18 18 19 19 19 18 18 17 19 21 19 17 15 12
15 13 12 11 11 11 11 10 10 10 10 9 9 9 10 10 10 10 10 12 13 14 15 15 16 17 18 18 19 19 19 19 20 19 19 19 18 17 16 16 16 17 18 19 20 20 19 20 20 20 21 21 20 18 18 18 20 23 21 18 16 14
15 15 13 12 11 11 10 10 10 10 10 9 9 9 10 10 11 11 12 13 14 15 15 16 16 17 18 19 19 19 20 19 20 19 20 20 20 20 19 19 18 18 19 19 20 21 20 21 21 22 22 20 18 19 19 19 22 23 22 20 18 15
17 16 13 12 12 11 11 11 11 11 10 10 11 11 11 12 12 13 13 14 14 15 15 16 16 16 17 17 18 18 19 19 18 18 19 19 19 19 18 19 19 19 21 20 19 20 21 21 21 19 17 15 14 17 18 19 23 24 23 21 18 16
17 16 14 13 13 13 12 12 12 11 11 12 12 12 12 13 14 14 14 14 14 15 15 14 14 14 15 15 16 17 18 17 17 17 18 19 19 19 18 17 18 20 22 21 20 20 21 23 21 17 13 11 11 13 14 17 22 24 23 22 20 18
17 16 15 14 13 13 13 13 11 10 10 11 11 11 12 12 12 13 14 14 13 13 13 13 13 14 15 15 15 16 16 16 16 15 16 17 18 19 18 16 17 20 21 21 20 20 21 22 20 17 14 13 12 12 12 15 20 23 23 23 21 19
16 16 16 15 13 12 11 10 10 9 10 10 10 10 10 10 12 13 13 13 11 11 12 12 13 14 14 15 15 16 16 15 14 14 14 15 16 17 17 16 17 19 19 20 20 20 20 18 18 18 15 15 16 16 17 17 19 22 24 25 23 20
16 17 16 14 13 11 10 9 9 10 10 10 10 9 10 11 12 12 13 11 11 11 12 13 13 14 14 15 16 16 16 15 14 13 14 14 15 16 16 16 17 18 19 19 21 21 19 18 20 20 17 17 18 17 17 18 20 21 23 26 25 22
15 16 15 13 12 11 9 9 10 10 10 10 10 9 9 10 10 10 11 10 11 12 12 13 13 13 14 15 15 16 16 16 15 15 14 14 15 16 17 17 19 20 19 19 21 22 20 20 20 19 19 17 15 15 17 19 21 21 23 26 26 25
13 13 13 12 11 10 10 10 10 9 9 8 7 7 7 8 9 9 9 10 11 12 12 13 13 14 15 16 17 17 17 17 16 16 16 16 15 16 16 17 19 20 20 20 20 19 17 17 16 15 17 15 11 12 17 19 19 20 22 25 26 26
10 11 11 11 10 10 10 9 8 7 6 4 3 3 4 6 8 8 9 10 11 12 13 14 14 15 16 17 17 17 17 17 17 17 17 18 17 17 16 17 18 18 19 19 19 17 14 14 13 12 12 12 11 11 14 18 21 23 24 23 24 26
8 9 10 9 9 9 8 7 6 4 3 1 1 3 4 6 8 9 10 11 12 13 14 15 15 16 17 17 18 18 19 19 18 18 18 19 19 19 19 18 17 17 17 18 19 18 16 14 13 12 9 8 9 10 13 18 21 23 22 21 22 24
7 7 7 7 7 6 5 4 3 2 1 2 2 3 5 7 8 10 11 13 14 14 14 14 14 15 16 17 18 19 20 20 20 19 19 20 21 21 22 21 19 18 18 18 19 19 18 17 15 13 7 4 4 5 8 13 18 22 23 23 23 24
6 6 5 5 5 5 3 3 2 2 3 3 3 4 4 5 7 9 11 14 15 15 14 14 13 13 15 16 17 18 18 19 20 20 21 21 22 22 23 23 22 20 19 18 18 18 19 20 19 14 6 2 2 3 3 7 13 20 25 24 24 25
5 5 5 4 4 4 3 3 3 2 2 3 4 6 6 7 10 11 13 14 15 15 14 13 12 12 13 15 15 16 16 17 19 20 21 23 23 23 23 23 23 22 20 20 20 20 18 19 22 21 14 6 3 2 3 4 7 12 19 23 23 25
6 5 5 4 4 4 3 2 2 3 4 6 8 9 10 11 12 13 13 14 14 14 13 12 12 12 13 15 16 17 17 18 18 19 21 23 23 23 24 25 24 23 23 23 22 22 20 19 21 25 26 21 13 9 5 4 4 3 10 18 20 22
6 6 5 5 4 3 2 2 3 5 6 7 8 9 10 10 11 11 11 12 13 12 12 13 14 15 15 16 17 18 19 20 21 21 22 23 24 24 25 27 26 25 25 25 23 24 24 22 20 22 27 28 26 22 14 8 5 2 3 8 15 20
6 5 4 4 2 1 2 2 3 3 3 4 5 6 7 7 8 9 9 10 11 11 13 15 16 17 17 17 18 19 20 21 22 23 23 25 25 25 25 26 26 25 25 25 24 24 25 23 21 20 23 26 27 26 22 16 13 8 3 2 7 13
6 5 4 3 2 1 2 2 2 2 2 2 3 4 5 5 6 7 8 10 11 13 14 15 16 17 18 18 19 19 20 21 22 23 24 25 26 26 26 26 27 26 26 26 25 25 26 26 24 22 21 23 24 25 24 21 18 13 6 4 4 5
10 9 8 7 6 6 5 4 3 3 2 2 3 3 3 5 6 7 9 11 12 14 15 15 15 16 18 18 19 19 20 21 22 22 23 25 26 26 27 27 28 28 27 26 26 27 28 27 26 26 24 22 22 22 18 14 16 15 9 7 6 5
13 12 11 9 8 8 6 5 4 3 2 3 3 3 5 6 7 8 10 11 13 14 15 16 17 18 18 19 19 19 20 20 21 22 22 23 25 26 27 28 28 28 27 27 27 28 29 28 27 27 28 26 24 24 19 13 16 19 13 8 7 5
14 11 10 8 7 7 5 4 3 2 2 2 3 4 5 6 6 7 8 11 12 14 16 17 18 20 20 20 20 20 20 21 21 22 22 22 23 24 26 27 27 26 26 26 27 27 27 28 29 28 28 27 27 27 26 24 23 24 21 17 12 6
13 10 9 7 6 5 3 3 2 2 2 2 2 3 4 4 5 6 8 10 13 14 17 18 20 21 22 21 21 21 21 21 22 22 21 20 21 23 25 26 25 25 25 25 27 27 27 28 29 29 28 25 24 26 28 30 29 26 25 22 16 8
13 10 8 7 5 4 2 2 2 1 1 1 2 3 3 4 5 6 7 9 12 14 15 18 19 20 20 20 20 20 20 21 22 22 21 20 19 20 22 22 22 22 23 24 25 26 28 28 28 29 28 25 24 26 28 30 30 27 25 24 19 12
13 10 8 7 5 4 3 2 1 1 1 1 2 3 4 4 5 6 8 10 12 14 15 17 18 19 20 20 20 21 21 21 21 21 20 19 18 19 20 20 20 20 21 22 23 25 26 26 27 28 28 28 26 27 28 29 29 28 27 26 24 22
13 11 9 7 6 4 2 1 1 1 2 3 4 4 4 5 6 8 10 12 13 15 16 18 19 20 20 20 19 20 20 21 21 20 19 19 18 18 18 17 18 19 21 22 22 23 24 25 27 27 28 29 27 27 29 29 28 29 30 29 27 27
13 10 9 7 5 3 2 3 4 5 6 6 7 7 7 7 8 10 12 13 14 15 16 18 19 20 20 20 19 19 20 21 21 20 19 19 19 17 16 16 17 19 21 21 20 21 23 24 26 27 28 28 27 27 28 28 28 29 30 30 28 26
Wind_Direction
174 177 176 172 171 170 170 177 183 181 176 175 174 173 176 176 172 169 173 177 178 180 181 189 207 246 283 299 311 314 300 281 265 254 252 221 122 116 145 171 182 186 186 184 182 171 159 152 129 104 111 170 182 183 181 181 164 141 138 133 134 136
177 177 175 173 169 165 170 177 180 177 172 177 179 177 179 180 181 178 182 195 200 201 199 213 247 282 291 293 302 308 292 272 262 255 252 245 218 173 156 172 185 191 193 193 191 182 171 173 158 119 114 182 198 198 195 191 180 168 159 151 150 148
178 177 175 173 168 166 172 174 172 172 171 176 180 182 185 187 192 189 192 206 210 215 222 234 250 270 282 278 289 310 301 274 260 257 256 248 239 227 213 196 193 196 199 199 198 192 181 183 179 139 117 178 212 210 205 200 196 193 184 174 169 165
181 180 178 175 173 173 176 175 170 170 171 174 180 185 192 196 199 202 208 213 212 215 217 215 209 215 232 227 240 324 330 299 264 256 256 251 243 237 236 230 221 209 205 205 204 199 188 190 197 166 124 94 217 217 212 212 210 206 204 193 180 171
184 184 182 181 180 180 180 177 174 173 171 172 176 179 184 185 183 190 195 198 199 195 191 190 190 204 224 224 229 294 330 327 291 265 256 252 246 241 240 239 240 230 217 210 206 202 193 195 209 212 210 76 207 223 220 222 219 216 215 200 186 179
187 188 187 188 186 183 183 182 178 175 175 174 172 171 175 176 173 174 176 186 189 186 191 200 211 218 233 246 256 272 292 305 304 286 265 254 247 243 242 241 241 238 230 216 204 201 199 199 209 235 274 294 292 248 233 231 225 220 217 205 192 188
187 188 190 195 190 184 185 185 179 177 180 178 176 178 181 181 180 181 185 195 201 207 218 228 241 249 257 264 268 271 273 280 286 289 280 260 248 243 242 243 241 237 233 221 207 205 208 204 208 242 276 290 294 278 249 236 231 223 216 210 199 199
188 187 190 194 192 188 185 181 181 184 185 182 185 187 188 188 191 197 203 213 225 237 247 255 263 271 279 281 275 267 261 268 276 280 285 274 256 243 241 243 242 241 237 227 217 216 219 216 223 251 271 285 291 289 268 241 232 227 218 212 203 205
190 189 191 192 192 191 184 180 187 189 186 187 192 192 194 200 203 213 223 231 242 253 262 269 273 276 283 286 284 272 262 263 271 275 277 281 272 253 244 244 244 244 242 237 231 230 231 232 240 253 264 278 285 288 278 248 231 226 220 214 208 206
193 193 196 195 193 191 186 186 189 187 187 190 193 197 206 216 223 232 241 250 258 265 271 277 280 281 281 283 284 279 274 270 271 272 271 273 276 268 254 248 247 247 247 247 245 242 243 246 250 254 260 270 277 283 279 256 234 225 220 216 210 206
197 198 201 202 195 190 189 189 189 188 193 197 197 205 217 228 236 244 253 259 265 270 274 277 279 280 280 280 280 278 277 275 273 273 272 270 270 272 269 261 255 251 250 252 253 253 255 259 260 260 263 269 275 277 274 259 236 223 220 217 211 207
198 201 204 206 199 196 198 197 198 199 204 210 211 219 229 240 249 256 262 266 269 271 273 275 275 277 278 278 275 273 273 272 273 273 272 272 271 270 270 269 265 260 256 254 256 257 262 269 270 270 274 278 277 271 266 254 233 220 218 215 210 208
199 204 207 209 206 206 211 211 215 217 220 226 230 239 245 254 262 268 272 274 274 274 273 273 274 276 277 276 274 272 270 270 272 272 272 272 273 272 268 266 265 265 265 261 260 261 266 272 274 275 278 280 274 266 260 243 227 220 217 213 211 209
202 207 212 215 216 216 220 222 226 232 236 242 246 253 258 263 269 273 276 275 274 273 273 274 275 275 274 275 275 273 273 273 274 275 274 273 273 275 272 266 262 263 265 267 268 266 269 273 274 275 276 273 262 257 253 237 225 220 215 212 210 210
207 212 215 218 220 223 227 227 230 237 242 247 253 259 263 266 269 271 271 272 274 274 276 278 279 277 275 275 276 276 277 280 282 280 277 276 275 277 277 272 262 257 258 261 267 268 269 271 270 267 266 266 255 248 245 236 228 220 215 213 211 210
209 211 213 217 221 225 228 227 232 240 245 250 253 258 263 266 268 269 270 274 277 280 282 286 286 284 282 281 280 281 282 285 285 280 277 277 275 275 278 277 267 259 254 253 257 259 262 269 272 268 262 255 245 244 251 245 235 224 218 216 213 210
208 209 212 216 221 224 226 228 237 246 251 256 256 262 270 273 275 276 279 281 281 282 284 287 288 288 288 289 290 290 291 292 286 278 275 276 275 273 274 276 271 264 258 252 248 250 254 263 269 266 263 259 248 249 255 249 237 229 224 222 217 211
205 208 212 217 221 226 231 236 244 252 260 264 267 276 282 281 282 280 282 284 282 282 284 288 289 289 290 291 292 292 295 298 294 286 280 277 275 273 274 275 274 270 264 257 252 251 252 257 262 259 260 267 264 254 247 239 234 232 228 225 221 217
205 207 211 216 221 226 234 240 247 256 264 270 277 284 287 287 286 282 282 282 282 285 290 293 290 288 287 287 288 290 294 300 301 298 291 285 278 274 274 274 276 277 274 269 263 255 250 255 260 255 251 256 259 247 234 231 233 233 231 226 225 226
209 211 211 214 220 225 234 241 249 257 261 271 282 289 294 296 294 293 294 292 291 296 299 299 297 294 293 292 291 291 293 296 299 300 296 293 287 282 279 278 279 280 279 278 272 263 253 247 239 234 240 242 241 236 230 230 230 230 230 226 226 229
214 218 218 220 224 227 233 240 250 259 262 276 299 317 318 309 302 301 303 304 307 312 311 309 308 305 303 301 298 297 297 298 300 300 298 297 296 291 286 283 282 279 277 277 273 271 258 235 219 216 228 233 230 228 228 229 229 229 230 228 226 226
215 220 221 225 228 229 235 242 255 264 267 291 329 337 330 318 314 314 314 317 322 323 319 317 314 311 310 308 306 305 305 306 306 303 302 302 300 296 290 285 280 273 271 270 268 269 254 230 222 219 215 221 227 222 221 224 228 230 231 232 230 227
205 213 217 222 228 234 239 239 242 258 332 355 340 334 331 326 327 328 326 327 333 334 330 329 324 320 320 319 316 313 312 311 308 305 303 301 299 297 294 289 283 275 270 266 264 264 255 239 226 217 211 218 216 206 218 221 224 229 228 230 231 227
190 197 204 211 219 224 233 245 256 291 332 349 357 353 349 348 344 336 329 329 335 339 339 339 337 334 333 331 329 325 322 317 312 308 303 298 295 293 292 289 285 279 271 264 262 260 256 246 230 215 202 190 174 177 228 218 214 223 224 224 227 226
170 177 185 197 209 223 250 281 290 304 351 7 1 355 351 349 346 341 335 332 334 338 339 340 340 338 335 331 330 329 326 323 318 314 306 299 294 291 289 286 282 278 270 264 263 261 256 248 240 233 223 205 153 166 231 206 201 219 218 217 221 223
165 176 185 200 208 225 255 302 322 328 345 344 339 347 356 355 351 347 343 338 335 336 337 340 341 336 331 327 327 326 323 320 317 315 311 305 298 292 287 284 280 277 273 268 265 261 255 250 249 246 237 229 228 234 230 174 166 214 213 215 221 221
187 195 199 203 204 227 280 328 336 335 337 335 330 340 353 355 352 345 343 341 337 334 335 337 336 332 330 326 324 322 319 315 312 312 312 308 303 297 291 288 283 278 275 272 264 257 255 253 247 246 244 240 238 240 236 211 194 185 191 218 220 218
180 187 189 194 205 273 350 356 1 9 4 351 334 330 337 343 343 335 334 338 337 335 335 333 331 328 327 326 322 319 316 314 311 310 309 306 303 301 296 292 286 279 274 271 264 256 254 253 245 241 240 238 237 238 235 228 220 208 174 191 211 211
146 145 141 147 148 104 79 74 74 80 62 25 358 339 335 336 338 335 331 330 331 332 331 328 327 326 326 326 323 320 316 314 311 308 307 304 301 300 297 292 286 282 278 273 268 263 255 250 247 245 240 234 231 231 230 226 222 216 203 193 192 197
118 115 112 112 113 108 104 111 111 97 70 36 16 356 341 338 341 339 333 331 331 330 327 325 326 326 327 327 325 322 321 317 314 311 307 304 300 297 294 290 286 284 282 278 273 269 262 254 250 248 245 238 227 222 222 221 217 216 215 212 213 211
108 108 106 103 105 104 102 100 88 65 37 15 2 343 334 338 336 327 330 337 334 328 326 326 326 326 327 329 326 324 323 319 315 311 308 306 302 297 293 291 288 284 282 281 278 275 270 265 259 252 247 242 231 223 218 216 213 208 205 205 207 215
104 103 100 96 96 91 85 75 50 23 17 7 355 346 345 348 341 331 336 340 335 330 328 327 327 327 330 332 331 330 327 322 318 314 311 309 306 302 298 293 289 284 281 280 279 277 274 271 267 262 255 247 239 231 224 225 223 212 207 206 201 206
100 95 95 92 87 78 67 51 25 7 7 359 355 359 4 1 356 350 344 341 342 341 336 333 332 333 335 337 338 337 333 330 329 325 320 314 308 305 302 296 291 288 285 284 283 280 276 274 272 268 263 255 243 235 230 230 229 216 209 208 204 206
100 96 97 92 86 76 64 49 36 27 2 348 6 21 26 20 10 358 348 349 353 350 344 339 338 339 340 340 341 342 340 340 339 336 330 323 315 310 308 303 299 293 287 287 287 284 280 278 275 270 266 260 248 240 235 232 230 221 211 208 204 200
109 108 106 99 95 86 73 57 47 64 45 43 58 64 58 40 23 8 1 1 358 353 351 349 348 349 349 346 346 347 348 346 343 340 337 332 324 316 312 310 308 303 295 292 288 284 282 279 276 273 268 263 256 249 244 237 231 226 218 213 211 207
114 115 110 102 95 83 66 55 71 96 87 79 77 71 62 47 34 25 16 9 5 5 5 4 2 359 356 357 358 356 353 351 349 347 345 343 336 326 318 315 314 310 302 297 292 287 286 282 278 277 273 266 259 253 250 242 232 229 225 220 217 212
113 111 105 100 96 92 102 107 98 96 90 85 81 70 62 52 41 32 22 15 16 20 18 13 8 3 360 2 5 1 357 355 356 355 353 351 349 342 333 326 320 313 306 300 297 294 290 285 281 279 275 269 262 254 250 244 235 230 226 222 219 215